Location: Cork
(51.8990°N, 8.4960°W)
Time: 23:32:51
(UTC+01:00)

Iridium 66 - Visible Passes

Search period start: 06 May 2016 00:00
Search period end: 16 May 2016 00:00
Orbit: 776 x 779 km, 86.4° (Epoch: 06 May)

Date Brightness Start Highest point End Pass type
(mag) Time Alt. Az. Time Alt. Az. Time Alt. Az.
06 May 7.3 01:31:20 10° NNW 01:35:51 30° W 01:37:46 24° WSW visible
06 May 7.3 23:17:02 10° NNE 23:21:32 28° ENE 23:23:58 20° ESE visible
07 May 6.6 00:57:28 10° NNW 01:02:30 49° W 01:04:26 33° SW visible
07 May 7.8 22:44:07 10° NNE 22:47:37 18° ENE 22:50:39 12° ESE visible
08 May 6.0 00:23:48 10° N 00:29:04 82° W 00:31:07 38° S visible
08 May 8.3 02:06:19 10° NW 02:08:55 14° WNW 02:11:33 10° WSW visible
08 May 8.2 22:12:11 10° NE 22:13:34 11° ENE 22:14:57 10° ENE visible
08 May 6.2 23:50:17 10° N 23:55:29 61° E 23:57:49 32° SSE visible
09 May 7.8 01:31:46 10° NNW 01:35:47 23° WNW 01:38:17 16° WSW visible
09 May 6.8 23:16:56 10° N 23:21:47 37° ENE 23:24:30 22° SE visible
10 May 7.1 00:57:44 10° NNW 01:02:30 37° W 01:04:59 23° SW visible
10 May 7.5 22:43:47 10° NNE 22:47:57 23° ENE 22:51:13 14° ESE visible
11 May 6.3 00:23:58 10° N 00:29:07 61° W 00:31:41 29° SSW visible
11 May 8.6 02:08:20 10° WNW 02:08:44 10° WNW 02:09:09 10° WNW visible
11 May 8.0 22:11:05 10° NNE 22:13:59 15° ENE 22:16:54 10° E visible
11 May 6.0 23:50:21 10° N 23:55:37 82° E 23:58:24 29° S visible
12 May 8.2 01:32:22 10° NW 01:35:40 17° WNW 01:38:53 10° WSW visible
12 May 6.4 23:16:54 10° N 23:22:00 50° E 23:25:07 22° SE visible
13 May 7.6 00:58:06 10° NNW 01:02:27 27° W 01:05:36 16° SW visible
13 May 7.1 22:43:37 10° NNE 22:48:15 31° ENE 22:51:50 15° SE visible
14 May 6.8 00:24:11 10° NNW 00:29:09 44° W 00:32:19 21° SSW visible
14 May 7.7 22:10:36 10° NNE 22:14:22 20° ENE 22:18:06 10° ESE visible
14 May 6.1 23:50:28 10° N 23:55:42 74° W 23:59:02 23° S visible
15 May 8.4 01:33:20 10° NW 01:35:29 13° WNW 01:37:39 10° W visible
15 May 6.1 23:16:55 10° N 23:22:09 68° E 23:25:47 20° SSE visible
